PP5CFL-13 Weather Reports


time (UTC)temp
F
wind
direction
speed
knots
gust
knots
rain 1hr
in
rain 24hr
in
rain mn
in
humidity
%
barometer
mb
20260507224845 79 0.0 0.0 0.00 0.00 0.00 83 1011.6
20260507224345 79 0.0 0.0 0.00 0.00 0.00 83 1011.8
20260507223845 78 0.0 0.0 0.00 0.00 0.00 85 1011.7
20260507223345 78 0.0 0.0 0.00 0.00 0.00 85 1011.7
20260507222845 78 0.0 0.0 0.00 0.00 0.00 85 1011.7
20260507222345 78 0.0 0.0 0.00 0.00 0.00 86 1011.6
20260507221845 78 0.0 0.0 0.00 0.00 0.00 86 1011.5
20260507221345 78 0.0 0.0 0.00 0.00 0.00 86 1011.5
20260507220845 78 0.0 0.0 0.00 0.00 0.00 86 1011.6
20260507220345 78 0.0 0.0 0.00 0.00 0.00 86 1011.5
20260507215845 78 0.0 0.0 0.00 0.00 0.00 86 1011.4
20260507215345 78 0.0 0.0 0.00 0.00 0.00 85 1011.4
20260507214845 78 0.0 0.0 0.00 0.00 0.00 86 1011.4
20260507214345 78 0.0 0.0 0.00 0.00 0.00 86 1011.3
20260507213845 78 0.0 0.0 0.00 0.00 0.00 86 1011.3
20260507213345 78 0.0 0.0 0.00 0.00 0.00 85 1011.2
20260507212845 78 0.0 0.0 0.00 0.00 0.00 87 1011.2
20260507212345 78 0.0 0.0 0.00 0.00 0.00 87 1011.2
20260507211845 78 0.0 0.0 0.00 0.00 0.00 85 1011.3
20260507211345 78 0.0 0.0 0.00 0.00 0.00 86 1011.2
20260507210845 78 0.0 0.0 0.00 0.00 0.00 85 1011.2
20260507210345 78 0.0 0.0 0.00 0.00 0.00 85 1011.3
20260507205845 78 0.0 0.0 0.00 0.00 0.00 85 1011.2
20260507205345 77 0.0 0.0 0.00 0.00 0.00 88 1011.1
20260507204845 77 0.0 0.0 0.00 0.00 0.00 88 1011.0
20260507204345 78 0.0 0.0 0.00 0.00 0.00 86 1010.8
20260507203845 77 0.0 0.0 0.00 0.00 0.00 86 1010.9
20260507203345 76 0.0 0.0 0.00 0.00 0.00 88 1011.0
20260507202845 78 0.0 0.0 0.00 0.00 0.00 85 1010.9
20260507202345 77 0.0 0.0 0.00 0.00 0.00 87 1010.9
20260507201845 77 0.0 0.0 0.00 0.00 0.00 88 1010.7
20260507201345 77 0.0 0.0 0.00 0.00 0.00 85 1010.9
20260507200845 77 0.0 0.0 0.00 0.00 0.00 85 1011.0
20260507200345 77 0.0 0.0 0.00 0.00 0.00 85 1011.0
20260507195845 77 0.0 0.0 0.00 0.00 0.00 85 1011.2
20260507195345 78 0.0 0.0 0.00 0.00 0.00 83 1010.9
20260507194845 78 0.0 0.0 0.00 0.00 0.00 82 1011.0
20260507194345 78 0.0 0.0 0.00 0.00 0.00 82 1010.8
20260507193845 78 0.0 0.0 0.00 0.00 0.00 82 1010.9
20260507193345 78 0.0 0.0 0.00 0.00 0.00 83 1010.8
20260507192845 78 0.0 0.0 0.00 0.00 0.00 83 1010.7
20260507192345 77 0.0 0.0 0.00 0.00 0.00 84 1010.6
20260507191845 77 0.0 0.0 0.00 0.00 0.00 86 1010.6
20260507191345 76 0.0 0.0 0.00 0.00 0.00 87 1010.8
20260507190845 77 0.0 0.0 0.00 0.00 0.00 85 1010.9
20260507190345 76 0.0 0.0 0.00 0.00 0.00 87 1010.9
20260507185845 76 0.0 0.0 0.00 0.00 0.00 86 1010.8
20260507185345 77 0.0 0.0 0.00 0.00 0.00 83 1010.8
20260507184845 76 0.0 0.0 0.00 0.00 0.00 86 1010.8
20260507184345 76 0.0 0.0 0.00 0.00 0.00 86 1010.8
20260507183845 76 0.0 0.0 0.00 0.00 0.00 87 1010.8
20260507183345 75 0.0 0.0 0.00 0.00 0.00 87 1010.8
20260507182845 75 0.0 0.0 0.00 0.00 0.00 87 1010.8
20260507182345 75 0.0 0.0 0.00 0.00 0.00 87 1010.9
20260507181845 75 0.0 0.0 0.00 0.00 0.00 87 1011.1
20260507181345 76 0.0 0.0 0.00 0.00 0.00 88 1011.1
20260507180845 76 0.0 0.0 0.00 0.00 0.00 87 1011.1
20260507180345 76 0.0 0.0 0.00 0.00 0.00 87 1011.1
20260507175845 76 0.0 0.0 0.00 0.00 0.00 87 1011.2
20260507175345 76 0.0 0.0 0.00 0.00 0.00 87 1011.2
20260507174845 76 0.0 0.0 0.00 0.00 0.00 87 1011.2
20260507174345 76 0.0 0.0 0.00 0.00 0.00 86 1011.3
20260507173845 76 0.0 0.0 0.00 0.00 0.00 85 1011.3
20260507173345 76 0.0 0.0 0.00 0.00 0.00 85 1011.3
20260507172845 76 0.0 0.0 0.00 0.00 0.00 84 1011.4
20260507172345 76 0.0 0.0 0.00 0.00 0.00 85 1011.4
20260507171845 76 0.0 0.0 0.00 0.00 0.00 85 1011.5
20260507171345 76 0.0 0.0 0.00 0.00 0.00 84 1011.6
20260507170845 76 0.0 0.0 0.00 0.00 0.00 84 1011.6
20260507170345 76 0.0 0.0 0.00 0.00 0.00 84 1011.7
20260507165845 76 0.0 0.0 0.00 0.00 0.00 84 1011.6
20260507165345 76 0.0 0.0 0.00 0.00 0.00 85 1011.8
20260507164845 76 0.0 0.0 0.00 0.00 0.00 86 1012.0
20260507164345 75 0.0 0.0 0.00 0.00 0.00 86 1012.0
20260507163845 75 0.0 0.0 0.00 0.00 0.00 86 1012.1
20260507163345 76 0.0 0.0 0.00 0.00 0.00 85 1012.2
20260507162845 76 0.0 0.0 0.00 0.00 0.00 85 1012.3
20260507162345 76 0.0 0.0 0.00 0.00 0.00 86 1012.5
20260507161845 76 0.0 0.0 0.00 0.00 0.00 85 1012.6
20260507161345 76 0.0 0.0 0.00 0.00 0.00 86 1012.8
20260507160845 76 0.0 0.0 0.00 0.00 0.00 85 1012.9
20260507160345 76 0.0 0.0 0.00 0.00 0.00 85 1013.1
20260507155845 76 0.0 0.0 0.00 0.00 0.00 86 1013.2
20260507155345 76 0.0 0.0 0.00 0.00 0.00 87 1013.3
20260507154845 76 0.0 0.0 0.00 0.00 0.00 87 1013.5
20260507154345 77 0.0 0.0 0.00 0.00 0.00 81 1013.4
20260507153845 77 0.0 0.0 0.00 0.00 0.00 83 1013.7
20260507153345 76 0.0 0.0 0.00 0.00 0.00 85 1013.7
20260507152845 76 0.0 0.0 0.00 0.00 0.00 85 1013.8
20260507152345 76 0.0 0.0 0.00 0.00 0.00 85 1014.0
20260507151845 76 0.0 0.0 0.00 0.00 0.00 84 1014.1
20260507151345 77 0.0 0.0 0.00 0.00 0.00 84 1014.2
20260507150844 77 0.0 0.0 0.00 0.00 0.00 82 1014.2
20260507150345 77 0.0 0.0 0.00 0.00 0.00 84 1014.3
20260507145845 77 0.0 0.0 0.00 0.00 0.00 85 1014.4
20260507145344 76 0.0 0.0 0.00 0.00 0.00 86 1014.6
20260507144845 76 0.0 0.0 0.00 0.00 0.00 87 1014.8
20260507144344 75 0.0 0.0 0.00 0.00 0.00 88 1014.9
20260507143844 76 0.0 0.0 0.00 0.00 0.00 86 1014.8
20260507143345 76 0.0 0.0 0.00 0.00 0.00 87 1015.0
20260507142844 75 0.0 0.0 0.00 0.00 0.00 87 1015.1
20260507142345 75 0.0 0.0 0.00 0.00 0.00 88 1015.2
20260507141844 75 0.0 0.0 0.00 0.00 0.00 88 1015.3
20260507141344 75 0.0 0.0 0.00 0.00 0.00 88 1015.5
20260507140845 75 0.0 0.0 0.00 0.00 0.00 87 1015.4
20260507140344 75 0.0 0.0 0.00 0.00 0.00 88 1015.6
20260507135844 76 0.0 0.0 0.00 0.00 0.00 87 1015.7
20260507135344 76 0.0 0.0 0.00 0.00 0.00 88 1015.8
20260507134845 76 0.0 0.0 0.00 0.00 0.00 87 1015.9
20260507134345 75 0.0 0.0 0.00 0.00 0.00 90 1016.0
20260507133844 77 0.0 0.0 0.00 0.00 0.00 86 1016.2
20260507133344 75 0.0 0.0 0.00 0.00 0.00 89 1016.3
20260507132844 76 0.0 0.0 0.00 0.00 0.00 88 1016.4
20260507132344 76 0.0 0.0 0.00 0.00 0.00 87 1016.5
20260507131845 78 0.0 0.0 0.00 0.00 0.00 83 1016.5
20260507131344 77 0.0 0.0 0.00 0.00 0.00 85 1016.5
20260507130844 77 0.0 0.0 0.00 0.00 0.00 85 1016.6
20260507130344 76 0.0 0.0 0.00 0.00 0.00 86 1016.6
20260507125844 77 0.0 0.0 0.00 0.00 0.00 84 1016.6
20260507125344 76 0.0 0.0 0.00 0.00 0.00 86 1016.7
20260507124844 77 0.0 0.0 0.00 0.00 0.00 85 1016.9
20260507124344 76 0.0 0.0 0.00 0.00 0.00 85 1017.0
20260507123844 76 0.0 0.0 0.00 0.00 0.00 86 1017.0
20260507123344 76 0.0 0.0 0.00 0.00 0.00 87 1017.0
20260507122844 75 0.0 0.0 0.00 0.00 0.00 91 1016.9
20260507122344 74 0.0 0.0 0.00 0.00 0.00 94 1016.9
20260507121844 74 0.0 0.0 0.00 0.00 0.00 95 1017.1
20260507121344 74 0.0 0.0 0.00 0.00 0.00 95 1017.3
20260507120844 74 0.0 0.0 0.00 0.00 0.00 96 1017.3
20260507120344 74 0.0 0.0 0.00 0.00 0.00 98 1017.2
20260507115844 74 0.0 0.0 0.00 0.00 0.00 99 1017.2
20260507115344 74 0.0 0.0 0.00 0.00 0.00 98 1017.3
20260507114844 74 0.0 0.0 0.00 0.00 0.00 98 1017.2
20260507114344 74 0.0 0.0 0.00 0.00 0.00 97 1017.3
20260507113844 74 0.0 0.0 0.00 0.00 0.00 97 1017.3
20260507113344 74 0.0 0.0 0.00 0.00 0.00 97 1017.4
20260507112844 74 0.0 0.0 0.00 0.00 0.00 97 1017.4
20260507112344 75 0.0 0.0 0.00 0.00 0.00 97 1017.4
20260507111844 75 0.0 0.0 0.00 0.00 0.00 97 1017.3
20260507111344 74 0.0 0.0 0.00 0.00 0.00 97 1017.4
20260507110845 74 0.0 0.0 0.00 0.00 0.00 97 1017.2
20260507110344 74 0.0 0.0 0.00 0.00 0.00 96 1017.1
20260507105844 74 0.0 0.0 0.00 0.00 0.00 96 1017.2
20260507105344 74 0.0 0.0 0.00 0.00 0.00 97 1017.2
20260507104844 74 0.0 0.0 0.00 0.00 0.00 97 1017.1
20260507104344 74 0.0 0.0 0.00 0.00 0.00 97 1017.2
20260507103844 74 0.0 0.0 0.00 0.00 0.00 97 1017.1
20260507103344 74 0.0 0.0 0.00 0.00 0.00 98 1017.2
20260507102844 74 0.0 0.0 0.00 0.00 0.00 97 1017.2
20260507102344 74 0.0 0.0 0.00 0.00 0.00 97 1017.1
20260507101844 74 0.0 0.0 0.00 0.00 0.00 98 1017.1
20260507101344 74 0.0 0.0 0.00 0.00 0.00 98 1017.1
20260507100844 74 0.0 0.0 0.00 0.00 0.00 99 1017.1
20260507100344 74 0.0 0.0 0.00 0.00 0.00 98 1017.1
20260507095844 74 0.0 0.0 0.00 0.00 0.00 99 1017.1
20260507095344 74 0.0 0.0 0.00 0.00 0.00 99 1017.0
20260507094844 74 0.0 0.0 0.00 0.00 0.00 10 1017.1
20260507094344 74 0.0 0.0 0.00 0.00 0.00 10 1017.1
20260507093844 74 0.0 0.0 0.00 0.00 0.00 99 1017.1
20260507093345 74 0.0 0.0 0.00 0.00 0.00 99 1017.2
20260507092844 74 0.0 0.0 0.00 0.00 0.00 99 1017.2
20260507092344 74 0.0 0.0 0.00 0.00 0.00 10 1017.2
20260507091845 74 0.0 0.0 0.00 0.00 0.00 10 1017.0
20260507091344 74 0.0 0.0 0.00 0.00 0.00 10 1016.9
20260507090844 74 0.0 0.0 0.00 0.00 0.00 99 1016.9
20260507090344 74 0.0 0.0 0.00 0.00 0.00 99 1016.9
20260507085844 74 0.0 0.0 0.00 0.00 0.00 99 1016.9
20260507085344 74 0.0 0.0 0.00 0.00 0.00 99 1016.9
20260507084844 74 0.0 0.0 0.00 0.00 0.00 99 1016.8
20260507084344 74 0.0 0.0 0.00 0.00 0.00 99 1016.8
20260507083844 74 0.0 0.0 0.00 0.00 0.00 98 1016.8
20260507083344 74 0.0 0.0 0.00 0.00 0.00 98 1016.9
20260507082844 74 0.0 0.0 0.00 0.00 0.00 98 1016.8
20260507082344 74 0.0 0.0 0.00 0.00 0.00 98 1016.7
20260507081844 74 0.0 0.0 0.00 0.00 0.00 98 1016.6
20260507081344 74 0.0 0.0 0.00 0.00 0.00 98 1016.7
20260507080844 74 0.0 0.0 0.00 0.00 0.00 97 1016.7
20260507080344 74 0.0 0.0 0.00 0.00 0.00 98 1016.6
20260507075844 74 0.0 0.0 0.00 0.00 0.00 97 1016.7
20260507075344 74 0.0 0.0 0.00 0.00 0.00 97 1016.7
20260507074844 74 0.0 0.0 0.00 0.00 0.00 97 1016.6
20260507074344 75 0.0 0.0 0.00 0.00 0.00 97 1016.6
20260507073844 75 0.0 0.0 0.00 0.00 0.00 97 1016.7
20260507073344 75 0.0 0.0 0.00 0.00 0.00 96 1016.7
20260507072844 75 0.0 0.0 0.00 0.00 0.00 96 1016.8
20260507072344 75 0.0 0.0 0.00 0.00 0.00 96 1016.8
20260507071844 75 0.0 0.0 0.00 0.00 0.00 96 1016.7
20260507071344 75 0.0 0.0 0.00 0.00 0.00 95 1016.8
20260507070844 75 0.0 0.0 0.00 0.00 0.00 95 1016.9
20260507070344 75 0.0 0.0 0.00 0.00 0.00 95 1016.9
20260507065844 75 0.0 0.0 0.00 0.00 0.00 95 1016.9
20260507065344 75 0.0 0.0 0.00 0.00 0.00 94 1017.0
20260507064844 75 0.0 0.0 0.00 0.00 0.00 94 1017.1
20260507064345 75 0.0 0.0 0.00 0.00 0.00 94 1017.1
20260507063844 75 0.0 0.0 0.00 0.00 0.00 94 1017.1
20260507063344 75 0.0 0.0 0.00 0.00 0.00 94 1017.3
20260507062844 75 0.0 0.0 0.00 0.00 0.00 94 1017.4
20260507062344 75 0.0 0.0 0.00 0.00 0.00 94 1017.5
20260507061844 75 0.0 0.0 0.00 0.00 0.00 94 1017.5
20260507061344 75 0.0 0.0 0.00 0.00 0.00 94 1017.6
20260507060844 75 0.0 0.0 0.00 0.00 0.00 93 1017.7
20260507060344 75 0.0 0.0 0.00 0.00 0.00 94 1017.8
20260507055844 75 0.0 0.0 0.00 0.00 0.00 93 1017.8
20260507055344 75 0.0 0.0 0.00 0.00 0.00 93 1017.9
20260507054844 75 0.0 0.0 0.00 0.00 0.00 94 1017.9
20260507054344 75 0.0 0.0 0.00 0.00 0.00 94 1018.0
20260507053844 75 0.0 0.0 0.00 0.00 0.00 94 1018.2
20260507053344 75 0.0 0.0 0.00 0.00 0.00 94 1018.1
20260507052844 75 0.0 0.0 0.00 0.00 0.00 94 1018.0
20260507052344 75 0.0 0.0 0.00 0.00 0.00 94 1018.2
20260507051844 75 0.0 0.0 0.00 0.00 0.00 94 1018.3
20260507051344 75 0.0 0.0 0.00 0.00 0.00 94 1018.2
20260507050844 75 0.0 0.0 0.00 0.00 0.00 94 1018.3
20260507050344 75 0.0 0.0 0.00 0.00 0.00 94 1018.4
20260507045845 75 0.0 0.0 0.00 0.00 0.00 93 1018.5
20260507045344 75 0.0 0.0 0.00 0.00 0.00 93 1018.4
20260507044844 75 0.0 0.0 0.00 0.00 0.00 93 1018.4
20260507044344 75 0.0 0.0 0.00 0.00 0.00 93 1018.5
20260507043844 75 0.0 0.0 0.00 0.00 0.00 93 1018.5
20260507043344 75 0.0 0.0 0.00 0.00 0.00 93 1018.6
20260507042844 75 0.0 0.0 0.00 0.00 0.00 93 1018.6
20260507042344 75 0.0 0.0 0.00 0.00 0.00 93 1018.7
20260507041844 75 0.0 0.0 0.00 0.00 0.00 93 1018.7
20260507041344 75 0.0 0.0 0.00 0.00 0.00 93 1018.7
20260507040844 75 0.0 0.0 0.00 0.00 0.00 92 1018.8
20260507040344 75 0.0 0.0 0.00 0.00 0.00 92 1018.9
20260507035844 75 0.0 0.0 0.00 0.00 0.00 92 1019.0
20260507035344 75 0.0 0.0 0.00 0.00 0.00 92 1019.0
20260507034844 75 0.0 0.0 0.00 0.00 0.00 92 1019.1
20260507034344 75 0.0 0.0 0.00 0.00 0.00 92 1019.2
20260507033844 75 0.0 0.0 0.00 0.00 0.00 91 1019.1
20260507033344 75 0.0 0.0 0.00 0.00 0.00 91 1019.1
20260507032844 76 0.0 0.0 0.00 0.00 0.00 91 1019.1
20260507032344 76 0.0 0.0 0.00 0.00 0.00 91 1019.2
20260507031844 76 0.0 0.0 0.00 0.00 0.00 90 1019.4
20260507031344 76 0.0 0.0 0.00 0.00 0.00 90 1019.3
20260507030844 76 0.0 0.0 0.00 0.00 0.00 90 1019.3
20260507030344 76 0.0 0.0 0.00 0.00 0.00 90 1019.4
20260507025844 76 0.0 0.0 0.00 0.00 0.00 90 1019.4
20260507025344 76 0.0 0.0 0.00 0.00 0.00 90 1019.6
20260507024844 76 0.0 0.0 0.00 0.00 0.00 89 1019.5
20260507024344 76 0.0 0.0 0.00 0.00 0.00 89 1019.5
20260507023844 76 0.0 0.0 0.00 0.00 0.00 88 1019.6
20260507023344 77 0.0 0.0 0.00 0.00 0.00 88 1019.6
20260507022844 77 0.0 0.0 0.00 0.00 0.00 88 1019.6
20260507022344 77 0.0 0.0 0.00 0.00 0.00 87 1019.7
20260507021844 77 0.0 0.0 0.00 0.00 0.00 88 1019.8
20260507021344 77 0.0 0.0 0.00 0.00 0.00 88 1019.8
20260507020844 77 0.0 0.0 0.00 0.00 0.00 88 1019.7
20260507020344 76 0.0 0.0 0.00 0.00 0.00 90 1019.8
20260507015844 76 0.0 0.0 0.00 0.00 0.00 91 1019.7
20260507015344 76 0.0 0.0 0.00 0.00 0.00 90 1019.8
20260507014844 76 0.0 0.0 0.00 0.00 0.00 90 1019.9
20260507014344 77 0.0 0.0 0.00 0.00 0.00 89 1019.9
20260507013844 76 0.0 0.0 0.00 0.00 0.00 90 1019.8
20260507013344 76 0.0 0.0 0.00 0.00 0.00 90 1019.9
20260507012844 77 0.0 0.0 0.00 0.00 0.00 90 1019.8
20260507012344 77 0.0 0.0 0.00 0.00 0.00 90 1019.9
20260507011844 77 0.0 0.0 0.00 0.00 0.00 90 1019.9
20260507011344 76 0.0 0.0 0.00 0.00 0.00 91 1020.0
20260507010844 76 0.0 0.0 0.00 0.00 0.00 92 1019.9
20260507010344 77 0.0 0.0 0.00 0.00 0.00 91 1019.9
20260507005844 76 0.0 0.0 0.00 0.00 0.00 92 1019.9
20260507005344 75 0.0 0.0 0.00 0.00 0.00 96 1019.9
20260507004844 75 0.0 0.0 0.00 0.00 0.00 96 1019.9
20260507004344 75 0.0 0.0 0.00 0.00 0.00 96 1020.0
20260507003844 75 0.0 0.0 0.00 0.00 0.00 96 1020.1
20260507003344 75 0.0 0.0 0.00 0.00 0.00 96 1020.1
20260507002844 75 0.0 0.0 0.00 0.00 0.00 96 1020.1
20260507002344 75 0.0 0.0 0.00 0.00 0.00 96 1020.2
20260507001844 75 0.0 0.0 0.00 0.00 0.00 95 1020.2
20260507001344 75 0.0 0.0 0.00 0.00 0.00 95 1020.1
20260507000844 75 0.0 0.0 0.00 0.00 0.00 95 1020.1
20260507000344 75 0.0 0.0 0.00 0.00 0.00 95 1020.1
20260506235844 75 0.0 0.0 0.00 0.00 0.00 95 1020.2
20260506235344 75 0.0 0.0 0.00 0.00 0.00 95 1020.3
20260506234844 75 0.0 0.0 0.00 0.00 0.00 95 1020.3
20260506234344 75 0.0 0.0 0.00 0.00 0.00 95 1020.3
20260506233844 75 0.0 0.0 0.00 0.00 0.00 95 1020.3
20260506233344 75 0.0 0.0 0.00 0.00 0.00 95 1020.3
20260506232844 75 0.0 0.0 0.00 0.00 0.00 95 1020.3
20260506232344 75 0.0 0.0 0.00 0.00 0.00 95 1020.3
20260506231844 75 0.0 0.0 0.00 0.00 0.00 95 1020.1
20260506231344 75 0.0 0.0 0.00 0.00 0.00 95 1020.1
20260506230844 75 0.0 0.0 0.00 0.00 0.00 95 1020.0
20260506230344 75 0.0 0.0 0.00 0.00 0.00 95 1019.9
20260506225844 75 0.0 0.0 0.00 0.00 0.00 94 1020.0
20260506225344 75 0.0 0.0 0.00 0.00 0.00 94 1019.9